WX4SKY Weather Reports


Display with metric or nautical units.
time (UTC)temp
F
wind
direction
speed
MPH
gust
MPH
rain 1hr
in
rain 24hr
in
rain mn
in
humidity
%
barometer
mb
20260905140112 80 0 0.0 0.0 0.00 0.00 0.00 87 1016.6
20260905134606 79 0 0.0 1.0 0.00 0.00 0.00 88 1016.6
20260905133059 76 0 0.0 0.0 0.00 0.00 0.00 92 1016.8
20260905131605 75 0 0.0 0.0 0.00 0.00 0.00 95 1016.9
20260905130106 73 0 0.0 0.0 0.00 0.00 0.00 96 1017.0
20260905124604 72 0 0.0 0.0 0.00 0.00 0.00 96 1017.0
20260905123105 72 0 0.0 0.0 0.00 0.00 0.00 95 1017.1
20260905121601 71 0 0.0 0.0 0.00 0.00 0.00 95 1016.9
20260905120112 71 0 0.0 0.0 0.00 0.00 0.00 95 1016.8
20260905114611 71 0 0.0 0.0 0.00 0.00 0.00 95 1016.6
20260905113101 71 0 0.0 0.0 0.00 0.00 0.00 95 1016.6
20260905111652 71 0 0.0 0.0 0.00 0.00 0.00 95 1016.4
20260905110105 71 0 0.0 0.0 0.00 0.00 0.00 95 1016.1
20260905104603 71 0 0.0 0.0 0.00 0.00 0.00 95 1016.1
20260905103109 71 0 0.0 0.0 0.00 0.00 0.00 95 1016.0
20260905101607 71 0 0.0 0.0 0.00 0.00 0.00 95 1016.0
20260905094556 71 0 0.0 0.0 0.00 0.00 0.00 95 1016.2
20260905093122 71 0 0.0 0.0 0.00 0.00 0.00 94 1016.0
20260905091602 71 0 0.0 0.0 0.00 0.00 0.00 94 1015.8
20260905090058 71 0 0.0 0.0 0.00 0.00 0.00 94 1015.8
20260905084603 71 0 0.0 0.0 0.00 0.00 0.00 94 1015.7
20260905083107 71 0 0.0 0.0 0.00 0.00 0.00 94 1015.7
20260905081605 71 0 0.0 0.0 0.00 0.00 0.00 94 1015.5
20260905080100 72 0 0.0 0.0 0.00 0.00 0.00 94 1015.6
20260905074613 72 0 0.0 0.0 0.00 0.00 0.00 94 1015.5
20260905073105 72 0 0.0 0.0 0.00 0.00 0.00 94 1015.2
20260905071603 72 0 0.0 0.0 0.00 0.00 0.00 94 1015.3
20260905070106 72 0 0.0 0.0 0.00 0.00 0.00 93 1015.6
20260905064634 72 0 0.0 0.0 0.00 0.00 0.00 93 1015.8
20260905063105 72 0 0.0 0.0 0.00 0.00 0.00 93 1015.8
20260905061604 73 0 0.0 0.0 0.00 0.00 0.00 93 1016.0
20260905060106 73 0 0.0 0.0 0.00 0.00 0.00 93 1016.1
20260905054609 73 0 0.0 0.0 0.00 0.00 0.00 92 1016.2
20260905053107 73 0 0.0 0.0 0.00 0.00 0.00 92 1016.3
20260905051605 73 0 0.0 0.0 0.00 0.00 0.00 92 1016.2
20260905050107 74 0 0.0 0.0 0.00 0.00 0.00 92 1016.3
20260905044613 74 0 0.0 0.0 0.00 0.00 0.00 92 1016.4
20260905043108 74 0 0.0 0.0 0.00 0.00 0.00 92 1016.5
20260905041606 74 0 0.0 0.0 0.00 0.00 0.00 91 1016.4
20260905040105 74 0 0.0 0.0 0.00 0.00 0.00 91 1016.4
20260905034610 74 0 0.0 0.0 0.00 0.00 0.00 91 1016.2
20260905033106 75 0 0.0 0.0 0.00 0.00 0.00 90 1016.2
20260905031605 75 0 0.0 0.0 0.00 0.00 0.00 89 1016.2
20260905030117 75 0 0.0 0.0 0.00 0.00 0.00 88 1016.5
20260905024608 75 0 0.0 0.0 0.00 0.00 0.00 88 1016.7
20260905023106 76 0 0.0 0.0 0.00 0.00 0.00 87 1017.0
20260905021613 76 0 0.0 0.0 0.00 0.00 0.00 86 1017.1
20260905020108 77 0 0.0 0.0 0.00 0.00 0.00 86 1017.3
20260905014601 77 0 0.0 0.0 0.00 0.00 0.00 85 1017.1
20260905013104 78 0 0.0 0.0 0.00 0.00 0.00 85 1017.0
20260905011609 79 0 0.0 0.0 0.00 0.00 0.00 83 1016.9
20260905010108 79 0 0.0 0.0 0.00 0.00 0.00 81 1016.6
20260905004608 80 0 0.0 0.0 0.00 0.00 0.00 79 1016.4
20260905003110 81 0 0.0 0.0 0.00 0.00 0.00 76 1016.2
20260905001612 83 0 0.0 0.0 0.00 0.00 0.00 74 1016.2
20260905000106 84 0 0.0 0.0 0.00 0.00 0.00 70 1016.1
20260904234608 86 0 0.0 0.0 0.00 0.00 0.00 67 1016.0
20260904233107 87 0 0.0 0.0 0.00 0.00 0.00 64 1015.7
20260904231607 88 0 0.0 0.0 0.00 0.00 0.00 61 1015.7
20260904230105 90 0 0.0 0.0 0.00 0.00 0.00 61 1015.7
20260904224605 91 0 0.0 0.0 0.00 0.00 0.00 58 1015.8
20260904223101 93 0 0.0 0.0 0.00 0.00 0.00 54 1015.9
20260904221608 96 0 0.0 1.0 0.00 0.00 0.00 51 1015.9
20260904220113 96 0 0.0 3.0 0.00 0.00 0.00 50 1015.8
20260904214609 96 0 1.0 3.0 0.00 0.00 0.00 50 1016.1
20260904213110 96 190 0.0 2.0 0.00 0.00 0.00 51 1016.0
20260904211609 96 169 0.0 2.0 0.00 0.00 0.00 51 1016.1
20260904210116 95 141 1.0 3.0 0.00 0.00 0.00 51 1016.1
20260904204604 95 139 1.0 3.0 0.00 0.00 0.00 53 1016.1
20260904203100 95 238 0.0 3.0 0.00 0.00 0.00 51 1016.3
20260904201601 96 223 1.0 4.0 0.00 0.00 0.00 53 1016.7
20260904200129 95 121 1.0 3.0 0.00 0.00 0.00 51 1016.7
20260904194638 95 143 2.0 4.0 0.00 0.00 0.00 54 1016.5
20260904193107 95 322 1.0 3.0 0.00 0.00 0.00 58 1016.8
20260904191624 94 0 0.0 3.0 0.00 0.00 0.00 54 1017.1
20260904190106 93 129 2.0 5.0 0.00 0.00 0.00 58 1017.5
20260904184614 93 339 1.0 4.0 0.00 0.00 0.00 57 1017.6
20260904183115 92 201 0.0 3.0 0.00 0.00 0.00 59 1017.9
20260904181607 93 45 1.0 4.0 0.00 0.00 0.00 59 1018.2
20260904174606 92 136 1.0 5.0 0.00 0.00 0.00 62 1018.4
20260904173112 92 174 1.0 4.0 0.00 0.00 0.00 60 1018.6
20260904171603 91 0 0.0 6.0 0.00 0.00 0.00 63 1018.8
20260904170100 90 68 1.0 4.0 0.00 0.00 0.00 65 1018.9
20260904164612 90 0 1.0 4.0 0.00 0.00 0.00 64 1018.9
20260904163103 89 153 1.0 3.0 0.00 0.00 0.00 69 1019.3
20260904161603 88 0 1.0 4.0 0.00 0.00 0.00 67 1019.3
20260904160101 87 136 0.0 3.0 0.00 0.00 0.00 69 1019.3
20260904154623 86 104 1.0 3.0 0.00 0.00 0.00 70 1019.7
20260904153107 86 248 0.0 2.0 0.00 0.00 0.00 74 1019.6
20260904151612 84 0 0.0 3.0 0.00 0.00 0.00 76 1019.4
20260904150100 84 0 0.0 2.0 0.00 0.00 0.00 76 1019.4
20260904144604 83 0 0.0 1.0 0.00 0.00 0.00 80 1019.4
20260904143106 81 215 0.0 3.0 0.00 0.00 0.00 81 1019.3
20260904141624 80 0 0.0 2.0 0.00 0.00 0.00 85 1019.5